EZS8PZ EGGW-EHAM

Flight info

Callsign EZS8PZ
Flight time 0h 40m
Altitude 27000
Route MATCH Q295 BRAIN M197 REDFA
Aircraft A320/M-SDE3FGHIRWY/LB1

Departure

Time 2026-05-07 16:17
Airport London Luton Airport (EGGW)

Arrival

Time 2026-05-07 16:58
Airport Amsterdam Airport Schiphol (EHAM)
Time Latitude Longitude Altitude Speed Heading
2026-05-07 15:46 51.87965 -0.37263 509 ft 0 kts 161°
2026-05-07 16:06 51.87978 -0.37270 508 ft 4 kts 169°
2026-05-07 16:06 51.88005 -0.37271 508 ft 4 kts 195°
2026-05-07 16:07 51.88028 -0.37253 508 ft 4 kts 227°
2026-05-07 16:07 51.88040 -0.37223 508 ft 2 kts 252°
2026-05-07 16:07 51.88049 -0.37188 508 ft 4 kts 225°
2026-05-07 16:07 51.88071 -0.37169 508 ft 4 kts 182°
2026-05-07 16:08 51.88097 -0.37174 510 ft 4 kts 162°
2026-05-07 16:08 51.88103 -0.37177 510 ft 1 kts 161°
2026-05-07 16:10 51.88088 -0.37169 509 ft 6 kts 162°
2026-05-07 16:10 51.88047 -0.37148 508 ft 6 kts 162°
2026-05-07 16:10 51.88015 -0.37131 508 ft 4 kts 161°
2026-05-07 16:10 51.87992 -0.37118 508 ft 4 kts 161°
2026-05-07 16:11 51.87953 -0.37097 509 ft 5 kts 161°
2026-05-07 16:11 51.87913 -0.37076 509 ft 10 kts 162°
2026-05-07 16:11 51.87850 -0.37043 512 ft 8 kts 162°
2026-05-07 16:11 51.87813 -0.37024 514 ft 6 kts 162°
2026-05-07 16:12 51.87760 -0.36995 517 ft 7 kts 161°
2026-05-07 16:12 51.87736 -0.36983 520 ft 0 kts 161°
2026-05-07 16:12 51.87701 -0.36964 522 ft 12 kts 161°
2026-05-07 16:12 51.87631 -0.36975 523 ft 11 kts 229°
2026-05-07 16:13 51.87608 -0.37094 522 ft 10 kts 253°
2026-05-07 16:13 51.87589 -0.37202 522 ft 9 kts 254°
2026-05-07 16:13 51.87575 -0.37298 522 ft 8 kts 264°
2026-05-07 16:13 51.87584 -0.37405 522 ft 9 kts 262°
2026-05-07 16:14 51.87546 -0.37465 521 ft 11 kts 207°
2026-05-07 16:14 51.87500 -0.37562 522 ft 10 kts 253°
2026-05-07 16:14 51.87481 -0.37666 523 ft 12 kts 255°
2026-05-07 16:14 51.87451 -0.37843 523 ft 17 kts 254°
2026-05-07 16:15 51.87427 -0.37979 524 ft 10 kts 251°
2026-05-07 16:15 51.87386 -0.38053 523 ft 9 kts 214°
2026-05-07 16:15 51.87330 -0.38096 522 ft 9 kts 207°
2026-05-07 16:15 51.87278 -0.38112 523 ft 7 kts 178°
2026-05-07 16:16 51.87229 -0.38199 523 ft 14 kts 253°
2026-05-07 16:16 51.87231 -0.38323 521 ft 7 kts 238°
2026-05-07 16:16 51.87212 -0.38303 521 ft 3 kts 109°
2026-05-07 16:16 51.87216 -0.38274 521 ft 1 kts 75°
2026-05-07 16:17 51.87240 -0.38130 524 ft 44 kts 75°
2026-05-07 16:17 51.87390 -0.37252 521 ft 114 kts 74°
2026-05-07 16:17 51.87646 -0.35747 715 ft 150 kts 76°
2026-05-07 16:17 51.87922 -0.34126 1474 ft 150 kts 76°
2026-05-07 16:18 51.88207 -0.32452 2039 ft 162 kts 76°
2026-05-07 16:18 51.88532 -0.30576 2376 ft 185 kts 75°
2026-05-07 16:18 51.88900 -0.28449 2682 ft 208 kts 75°
2026-05-07 16:18 51.89316 -0.26048 3050 ft 234 kts 75°
2026-05-07 16:19 51.89543 -0.23337 3494 ft 255 kts 101°
2026-05-07 16:19 51.88746 -0.20770 4241 ft 263 kts 137°
2026-05-07 16:19 51.87225 -0.19162 4902 ft 268 kts 155°
2026-05-07 16:19 51.85530 -0.17906 5877 ft 268 kts 159°
2026-05-07 16:20 51.83803 -0.16755 6843 ft 270 kts 160°
2026-05-07 16:20 51.82050 -0.15599 7764 ft 273 kts 159°
2026-05-07 16:20 51.80290 -0.14412 8672 ft 276 kts 158°
2026-05-07 16:20 51.78515 -0.13186 9592 ft 279 kts 158°
2026-05-07 16:21 51.76787 -0.11729 10430 ft 284 kts 142°
2026-05-07 16:21 51.75596 -0.09179 11193 ft 292 kts 112°
2026-05-07 16:21 51.75330 -0.05908 11869 ft 305 kts 88°
2026-05-07 16:21 51.75561 -0.02371 12110 ft 329 kts 84°
2026-05-07 16:22 51.75875 0.01376 12568 ft 342 kts 83°
2026-05-07 16:22 51.76226 0.05214 13280 ft 348 kts 83°
2026-05-07 16:22 51.76583 0.09094 14013 ft 352 kts 83°
2026-05-07 16:22 51.76935 0.13021 14665 ft 355 kts 83°
2026-05-07 16:23 51.77275 0.16995 15301 ft 360 kts 84°
2026-05-07 16:23 51.77608 0.21029 15932 ft 364 kts 84°
2026-05-07 16:23 51.77940 0.25109 16559 ft 369 kts 84°
2026-05-07 16:23 51.78274 0.29252 17187 ft 373 kts 84°
2026-05-07 16:24 51.78610 0.33447 17810 ft 378 kts 83°
2026-05-07 16:24 51.78946 0.37670 18402 ft 382 kts 83°
2026-05-07 16:24 51.79288 0.41959 18927 ft 386 kts 83°
2026-05-07 16:24 51.79626 0.46225 19453 ft 390 kts 83°
2026-05-07 16:25 51.79970 0.50581 19988 ft 393 kts 83°
2026-05-07 16:25 51.80318 0.54993 20514 ft 397 kts 83°
2026-05-07 16:25 51.80665 0.59434 21038 ft 400 kts 83°
2026-05-07 16:25 51.81016 0.63904 21591 ft 402 kts 83°
2026-05-07 16:26 51.81596 0.68336 22118 ft 405 kts 76°
2026-05-07 16:26 51.82280 0.72774 22644 ft 408 kts 76°
2026-05-07 16:26 51.82968 0.77249 23134 ft 411 kts 76°
2026-05-07 16:26 51.83437 0.80290 23474 ft 413 kts 76°
2026-05-07 16:27 51.84417 0.86276 24046 ft 417 kts 75°
2026-05-07 16:27 51.85235 0.90799 24462 ft 420 kts 73°
2026-05-07 16:27 51.86088 0.95323 24874 ft 422 kts 73°
2026-05-07 16:27 51.86951 0.99876 25283 ft 424 kts 73°
2026-05-07 16:28 51.87811 1.04459 25695 ft 426 kts 73°
2026-05-07 16:28 51.88661 1.09068 26095 ft 429 kts 74°
2026-05-07 16:28 51.89500 1.13709 26482 ft 431 kts 74°
2026-05-07 16:28 51.90339 1.18373 26868 ft 433 kts 74°
2026-05-07 16:29 51.91179 1.23070 27050 ft 434 kts 74°
2026-05-07 16:29 51.92005 1.27688 27087 ft 421 kts 74°
2026-05-07 16:29 51.92811 1.32227 27086 ft 416 kts 75°
2026-05-07 16:29 51.93339 1.35209 27087 ft 415 kts 75°
2026-05-07 16:30 51.94133 1.39701 27090 ft 415 kts 75°
2026-05-07 16:30 51.94926 1.44194 27090 ft 414 kts 75°
2026-05-07 16:30 51.95719 1.48671 27085 ft 414 kts 74°
2026-05-07 16:30 51.96515 1.53181 27090 ft 414 kts 75°
2026-05-07 16:31 51.97303 1.57664 27093 ft 414 kts 75°
2026-05-07 16:31 51.98089 1.62152 27089 ft 413 kts 75°
2026-05-07 16:31 51.98874 1.66635 27092 ft 413 kts 75°
2026-05-07 16:31 51.99644 1.71125 27092 ft 413 kts 75°
2026-05-07 16:32 52.00373 1.75635 27089 ft 413 kts 76°
2026-05-07 16:32 52.01068 1.80150 27090 ft 413 kts 77°
2026-05-07 16:32 52.01752 1.84688 27090 ft 413 kts 77°
2026-05-07 16:32 52.02432 1.89210 27089 ft 413 kts 77°
2026-05-07 16:33 52.03116 1.93742 27092 ft 413 kts 77°
2026-05-07 16:33 52.03803 1.98266 27097 ft 412 kts 77°
2026-05-07 16:33 52.04496 2.02770 27000 ft 409 kts 76°
2026-05-07 16:33 52.05180 2.07212 26741 ft 401 kts 76°
2026-05-07 16:34 52.05844 2.11538 26481 ft 398 kts 77°
2026-05-07 16:34 52.06509 2.15898 26226 ft 397 kts 77°
2026-05-07 16:34 52.07171 2.20250 25972 ft 395 kts 77°
2026-05-07 16:34 52.07829 2.24583 25712 ft 391 kts 77°
2026-05-07 16:35 52.08476 2.28842 25293 ft 387 kts 77°
2026-05-07 16:35 52.09116 2.33069 24833 ft 383 kts 77°
2026-05-07 16:35 52.09747 2.37273 24395 ft 380 kts 77°
2026-05-07 16:35 52.10369 2.41432 23930 ft 378 kts 77°
2026-05-07 16:36 52.10990 2.45582 23429 ft 376 kts 76°
2026-05-07 16:36 52.11847 2.49584 22961 ft 373 kts 65°
2026-05-07 16:36 52.13100 2.53292 22659 ft 376 kts 59°
2026-05-07 16:36 52.14443 2.56963 22314 ft 376 kts 59°
2026-05-07 16:37 52.15774 2.60623 21971 ft 375 kts 59°
2026-05-07 16:37 52.17094 2.64269 21640 ft 373 kts 59°
2026-05-07 16:37 52.18404 2.67905 21292 ft 371 kts 59°
2026-05-07 16:37 52.19693 2.71486 20972 ft 369 kts 59°
2026-05-07 16:38 52.20989 2.75091 20639 ft 368 kts 59°
2026-05-07 16:38 52.22281 2.78683 20306 ft 365 kts 59°
2026-05-07 16:38 52.23565 2.82249 19990 ft 364 kts 59°
2026-05-07 16:38 52.24841 2.85798 19650 ft 362 kts 59°
2026-05-07 16:39 52.26104 2.89326 19331 ft 359 kts 59°
2026-05-07 16:39 52.27363 2.92851 19001 ft 358 kts 59°
2026-05-07 16:39 52.28615 2.96359 18677 ft 355 kts 59°
2026-05-07 16:39 52.29860 2.99846 18352 ft 355 kts 59°
2026-05-07 16:40 52.31100 3.03322 18009 ft 353 kts 59°
2026-05-07 16:40 52.32330 3.06773 17681 ft 351 kts 59°
2026-05-07 16:40 52.33555 3.10219 17373 ft 350 kts 60°
2026-05-07 16:40 52.34772 3.13649 17061 ft 347 kts 60°
2026-05-07 16:41 52.35982 3.17063 16748 ft 347 kts 60°
2026-05-07 16:41 52.37186 3.20466 16442 ft 344 kts 60°
2026-05-07 16:41 52.38366 3.23810 16129 ft 342 kts 60°
2026-05-07 16:41 52.39554 3.27182 15821 ft 341 kts 60°
2026-05-07 16:42 52.40732 3.30532 15499 ft 339 kts 60°
2026-05-07 16:42 52.41901 3.33871 15205 ft 338 kts 60°
2026-05-07 16:42 52.43069 3.37199 14907 ft 335 kts 60°
2026-05-07 16:42 52.44222 3.40515 14601 ft 334 kts 63°
2026-05-07 16:43 52.45075 3.44040 14301 ft 332 kts 75°
2026-05-07 16:43 52.45611 3.47712 14002 ft 330 kts 77°
2026-05-07 16:43 52.46131 3.51358 13678 ft 329 kts 77°
2026-05-07 16:43 52.46655 3.55004 13380 ft 326 kts 77°
2026-05-07 16:44 52.47175 3.58617 13086 ft 325 kts 77°
2026-05-07 16:44 52.47689 3.62215 12792 ft 323 kts 77°
2026-05-07 16:44 52.48199 3.65800 12508 ft 322 kts 77°
2026-05-07 16:44 52.48704 3.69367 12207 ft 320 kts 77°
2026-05-07 16:45 52.49207 3.72923 11916 ft 319 kts 77°
2026-05-07 16:45 52.49707 3.76460 11628 ft 318 kts 77°
2026-05-07 16:45 52.50204 3.79994 11343 ft 316 kts 77°
2026-05-07 16:45 52.50699 3.83512 11058 ft 316 kts 77°
2026-05-07 16:46 52.51195 3.87019 10775 ft 314 kts 77°
2026-05-07 16:46 52.51688 3.90500 10490 ft 313 kts 77°
2026-05-07 16:46 52.52126 3.93990 10227 ft 309 kts 84°
2026-05-07 16:46 52.52106 3.97432 10085 ft 297 kts 99°
2026-05-07 16:47 52.51598 4.00670 9890 ft 291 kts 112°
2026-05-07 16:47 52.50842 4.03758 9620 ft 290 kts 113°
2026-05-07 16:47 52.50095 4.06813 9338 ft 287 kts 113°
2026-05-07 16:47 52.49364 4.09813 9059 ft 285 kts 113°
2026-05-07 16:48 52.48630 4.12827 8782 ft 284 kts 113°
2026-05-07 16:48 52.47898 4.15828 8511 ft 282 kts 113°
2026-05-07 16:48 52.47169 4.18809 8231 ft 280 kts 114°
2026-05-07 16:48 52.46442 4.21764 7956 ft 278 kts 114°
2026-05-07 16:49 52.45718 4.24696 7687 ft 277 kts 113°
2026-05-07 16:49 52.44996 4.27614 7422 ft 275 kts 114°
2026-05-07 16:49 52.44283 4.30506 7155 ft 273 kts 114°
2026-05-07 16:49 52.43570 4.33382 6891 ft 270 kts 116°
2026-05-07 16:50 52.42557 4.35916 6628 ft 265 kts 136°
2026-05-07 16:50 52.41090 4.37630 6369 ft 261 kts 156°
2026-05-07 16:50 52.39338 4.38347 6094 ft 260 kts 178°
2026-05-07 16:50 52.37531 4.38182 5830 ft 261 kts 185°
2026-05-07 16:51 52.35721 4.37940 5576 ft 261 kts 184°
2026-05-07 16:51 52.33932 4.37714 5322 ft 261 kts 184°
2026-05-07 16:51 52.32116 4.37492 5058 ft 263 kts 184°
2026-05-07 16:51 52.30286 4.37266 4792 ft 264 kts 184°
2026-05-07 16:52 52.28466 4.37037 4548 ft 259 kts 184°
2026-05-07 16:52 52.26712 4.36814 4415 ft 246 kts 184°
2026-05-07 16:52 52.25051 4.36933 4240 ft 236 kts 164°
2026-05-07 16:52 52.23626 4.38134 4083 ft 230 kts 138°
2026-05-07 16:53 52.22657 4.40178 3974 ft 229 kts 115°
2026-05-07 16:53 52.21975 4.42528 3755 ft 228 kts 114°
2026-05-07 16:53 52.21310 4.44834 3542 ft 222 kts 113°
2026-05-07 16:53 52.20897 4.47229 3329 ft 217 kts 94°
2026-05-07 16:54 52.20847 4.49662 3131 ft 213 kts 90°
2026-05-07 16:54 52.20881 4.52032 2982 ft 206 kts 79°
2026-05-07 16:54 52.21364 4.54190 2794 ft 202 kts 58°
2026-05-07 16:54 52.22108 4.56114 2533 ft 198 kts 58°
2026-05-07 16:55 52.22824 4.57955 2285 ft 185 kts 58°
2026-05-07 16:55 52.23468 4.59617 2050 ft 166 kts 58°
2026-05-07 16:55 52.24055 4.61134 1832 ft 148 kts 57°
2026-05-07 16:55 52.24575 4.62480 1629 ft 136 kts 57°
2026-05-07 16:56 52.25099 4.63837 1441 ft 146 kts 56°
2026-05-07 16:56 52.25645 4.65251 1235 ft 149 kts 56°
2026-05-07 16:56 52.26707 4.68004 821 ft 135 kts 55°
2026-05-07 16:57 52.27199 4.69283 643 ft 131 kts 56°
2026-05-07 16:57 52.27680 4.70544 465 ft 129 kts 56°
2026-05-07 16:57 52.28167 4.71796 295 ft 131 kts 56°
2026-05-07 16:57 52.28645 4.73038 111 ft 128 kts 57°
2026-05-07 16:58 52.29118 4.74269 4 ft 126 kts 57°
2026-05-07 16:58 52.29510 4.75283 -2 ft 81 kts 58°
2026-05-07 16:58 52.29721 4.75830 -3 ft 38 kts 57°
2026-05-07 16:58 52.29857 4.76178 -3 ft 35 kts 58°
2026-05-07 16:59 52.29980 4.76479 -2 ft 29 kts 44°
2026-05-07 16:59 52.30115 4.76614 -1 ft 17 kts 27°
2026-05-07 16:59 52.30205 4.76691 -1 ft 13 kts 28°
2026-05-07 16:59 52.30262 4.76722 -1 ft 3 kts 312°
2026-05-07 17:00 52.30250 4.76660 -1 ft 13 kts 237°
2026-05-07 17:00 52.30200 4.76530 -1 ft 13 kts 238°
2026-05-07 17:00 52.30153 4.76408 -1 ft 12 kts 238°
2026-05-07 17:00 52.30102 4.76277 -1 ft 15 kts 238°
2026-05-07 17:01 52.30048 4.76136 -1 ft 14 kts 238°
2026-05-07 17:01 52.29998 4.76004 -1 ft 15 kts 238°
2026-05-07 17:01 52.29933 4.75836 -1 ft 17 kts 238°
2026-05-07 17:01 52.29870 4.75672 -1 ft 16 kts 238°
2026-05-07 17:02 52.29815 4.75528 -1 ft 15 kts 238°
2026-05-07 17:02 52.29777 4.75387 -1 ft 13 kts 260°
2026-05-07 17:02 52.29808 4.75267 -1 ft 11 kts 309°
2026-05-07 17:02 52.29854 4.75175 -1 ft 10 kts 310°
2026-05-07 17:03 52.29903 4.75081 -1 ft 15 kts 311°
2026-05-07 17:03 52.29976 4.74946 -1 ft 16 kts 311°
2026-05-07 17:03 52.30049 4.74810 0 ft 16 kts 312°
2026-05-07 17:03 52.30114 4.74691 6 ft 13 kts 311°
2026-05-07 17:04 52.30183 4.74563 10 ft 15 kts 311°
2026-05-07 17:04 52.30253 4.74433 10 ft 15 kts 311°
2026-05-07 17:04 52.30326 4.74295 -1 ft 16 kts 310°
2026-05-07 17:04 52.30418 4.74197 -1 ft 16 kts 355°
2026-05-07 17:05 52.30539 4.74204 -1 ft 19 kts
2026-05-07 17:05 52.30675 4.74217 -1 ft 21 kts
2026-05-07 17:05 52.30823 4.74230 -1 ft 22 kts
2026-05-07 17:05 52.30984 4.74246 -1 ft 24 kts
2026-05-07 17:06 52.31155 4.74262 -1 ft 25 kts
2026-05-07 17:06 52.31303 4.74275 -1 ft 19 kts
2026-05-07 17:06 52.31392 4.74389 -1 ft 19 kts 88°
2026-05-07 17:06 52.31398 4.74610 -1 ft 20 kts 85°
2026-05-07 17:07 52.31406 4.74849 -1 ft 22 kts 88°
2026-05-07 17:07 52.31414 4.75106 -1 ft 23 kts 87°
2026-05-07 17:07 52.31421 4.75326 -1 ft 18 kts 86°
2026-05-07 17:07 52.31413 4.75458 -1 ft 10 kts 133°
2026-05-07 17:08 52.31354 4.75477 -1 ft 8 kts 176°
2026-05-07 17:08 52.31284 4.75484 -1 ft 13 kts 176°
2026-05-07 17:08 52.31198 4.75492 -1 ft 12 kts 176°
2026-05-07 17:08 52.31121 4.75494 -1 ft 11 kts 191°
2026-05-07 17:09 52.31073 4.75420 -1 ft 9 kts 237°
2026-05-07 17:09 52.31050 4.75371 -1 ft 3 kts 208°
2026-05-07 17:09 52.31033 4.75380 -1 ft 2 kts 149°
2026-05-07 17:09 52.31022 4.75391 -1 ft 1 kts 146°
2026-05-07 17:10 52.31015 4.75399 -1 ft 1 kts 147°
2026-05-07 17:10 52.31012 4.75403 -1 ft 0 kts 147°
2026-05-07 17:10 52.31004 4.75410 -1 ft 1 kts 148°